Volver al catálogo

STARLINK-37787

ActivoComunicacionesSSO
NORAD 69692·PAYLOAD·🇺🇸 United States

Lanzado Jun 25, 2026 desde Vandenberg Space Force Base

Loading…

Próximos Pases (próximas 24 horas)

TLE

ActualizadoSource: CelesTrak SupGP

Época: Sep 15, 2026, 03:24 UTC

1 69692C 26145R   26258.14215278 -.00033737  00000+0 -10469-2 0  2587
2 69692  97.2849 104.9264 0001813  91.4391 314.1219 15.33465827    15

Sigue STARLINK-37787 en tiempo real con AllMySat

Download on the App Store